When you browse on this site, cookies collect data to enhance your experience and personalize the content and advertising you see.
Visit our Privacy Policy to learn more. By continuing to use the site, you agree to this use of cookies and data.
  • In Deutschland
  • Länderverzeichnis
  • Für 7 Tage
  • Wassertemperatur
  • Wetterkarte
  • Widgets
  • user-avatar
    Anmelden

    Stündliche Wetter Biskira

    Heute, 16 September, Montag

    Zeit Temperatur Niederschläge Wind Luftdruck Luftfeuchtigkeit
    00:00 +31°C° 0 mm 1 m/S 756 mmHg 45%
    01:00 +30°C° 0 mm 1 m/S 755 mmHg 46%
    02:00 +30°C° 0 mm 1 m/S 755 mmHg 47%
    03:00 +30°C° 0 mm 1 m/S 754 mmHg 48%
    04:00 +30°C° 0 mm 1 m/S 755 mmHg 48%
    05:00 +29°C° 0 mm 1 m/S 755 mmHg 49%
    06:00 +29°C° 0 mm 1 m/S 755 mmHg 49%
    07:00 +30°C° 0 mm 1 m/S 755 mmHg 45%
    08:00 +31°C° 0 mm 2 m/S 755 mmHg 42%
    09:00 +32°C° 0 mm 2 m/S 755 mmHg 38%
    10:00 +34°C° 0.1 mm 2 m/S 755 mmHg 36%
    11:00 +35°C° 0.1 mm 2 m/S 755 mmHg 34%
    12:00 +36°C° 0.1 mm 2 m/S 755 mmHg 32%
    13:00 +36°C° 0 mm 2 m/S 754 mmHg 31%
    14:00 +37°C° 0 mm 2 m/S 754 mmHg 29%
    15:00 +36°C° 0 mm 1 m/S 753 mmHg 28%
    16:00 +37°C° 0 mm 2 m/S 753 mmHg 30%
    17:00 +37°C° 0 mm 2 m/S 753 mmHg 31%
    18:00 +36°C° 0 mm 2 m/S 753 mmHg 32%
    19:00 +36°C° 0 mm 2 m/S 753 mmHg 34%
    20:00 +35°C° 0 mm 2 m/S 753 mmHg 36%
    21:00 +33°C° 0 mm 1 m/S 754 mmHg 38%
    22:00 +33°C° 0 mm 1 m/S 754 mmHg 40%
    23:00 +32°C° 0 mm 1 m/S 754 mmHg 42%

    Morgen, 17 September, Dienstag

    Zeit Temperatur Niederschläge Wind Luftdruck Luftfeuchtigkeit
    00:00 +32°C° 0 mm 1 m/S 754 mmHg 44%
    01:00 +29°C° 0 mm 0 m/S 753 mmHg 45%
    02:00 +29°C° 0 mm 0 m/S 753 mmHg 46%
    03:00 +29°C° 0 mm 0 m/S 752 mmHg 47%
    04:00 +29°C° 0 mm 0 m/S 753 mmHg 47%
    05:00 +29°C° 0 mm 0 m/S 753 mmHg 46%
    06:00 +29°C° 0 mm 0 m/S 753 mmHg 46%
    07:00 +32°C° 0 mm 1 m/S 753 mmHg 41%
    08:00 +33°C° 0 mm 1 m/S 753 mmHg 37%
    09:00 +34°C° 0 mm 1 m/S 753 mmHg 32%
    10:00 +36°C° 0 mm 2 m/S 753 mmHg 30%
    11:00 +37°C° 0 mm 2 m/S 753 mmHg 28%
    12:00 +38°C° 0 mm 2 m/S 752 mmHg 26%
    13:00 +39°C° 0 mm 2 m/S 752 mmHg 24%
    14:00 +39°C° 0 mm 2 m/S 751 mmHg 23%
    15:00 +40°C° 0 mm 2 m/S 751 mmHg 22%
    16:00 +39°C° 0 mm 2 m/S 751 mmHg 24%
    17:00 +38°C° 0 mm 2 m/S 751 mmHg 26%
    18:00 +38°C° 0 mm 3 m/S 751 mmHg 28%
    19:00 +36°C° 0.1 mm 4 m/S 752 mmHg 32%
    20:00 +34°C° 0.1 mm 6 m/S 753 mmHg 36%
    21:00 +33°C° 0.1 mm 8 m/S 753 mmHg 39%
    22:00 +33°C° 0 mm 9 m/S 753 mmHg 40%
    23:00 +32°C° 0 mm 10 m/S 753 mmHg 42%

    übermorgen, 18 September, Mittwoch

    Zeit Temperatur Niederschläge Wind Luftdruck Luftfeuchtigkeit
    00:00 +32°C° 0 mm 11 m/S 753 mmHg 43%
    01:00 +32°C° 0 mm 9 m/S 753 mmHg 41%
    02:00 +32°C° 0 mm 6 m/S 752 mmHg 39%
    03:00 +33°C° 0 mm 4 m/S 752 mmHg 37%
    04:00 +31°C° 0 mm 3 m/S 752 mmHg 38%
    05:00 +31°C° 0 mm 2 m/S 752 mmHg 39%
    06:00 +31°C° 0 mm 2 m/S 752 mmHg 40%
    07:00 +34°C° 0 mm 2 m/S 752 mmHg 35%
    08:00 +35°C° 0 mm 3 m/S 752 mmHg 31%
    09:00 +37°C° 0 mm 3 m/S 753 mmHg 27%
    10:00 +37°C° 0 mm 3 m/S 752 mmHg 26%
    11:00 +38°C° 0 mm 3 m/S 752 mmHg 26%
    12:00 +38°C° 0 mm 3 m/S 752 mmHg 25%
    13:00 +39°C° 0 mm 3 m/S 752 mmHg 24%
    14:00 +39°C° 0 mm 3 m/S 751 mmHg 24%
    15:00 +39°C° 0 mm 3 m/S 751 mmHg 23%
    16:00 +39°C° 0 mm 5 m/S 752 mmHg 26%
    17:00 +36°C° 0 mm 7 m/S 752 mmHg 30%
    18:00 +35°C° 0 mm 9 m/S 752 mmHg 33%
    19:00 +34°C° 0.1 mm 7 m/S 753 mmHg 34%
    20:00 +34°C° 0.1 mm 5 m/S 753 mmHg 36%
    21:00 +33°C° 0.1 mm 3 m/S 754 mmHg 37%
    22:00 +33°C° 0.1 mm 3 m/S 754 mmHg 38%
    23:00 +32°C° 0.1 mm 2 m/S 753 mmHg 38%

    19 September, Donnerstag

    Zeit Temperatur Niederschläge Wind Luftdruck Luftfeuchtigkeit
    00:00 +32°C° 0.1 mm 1 m/S 753 mmHg 39%
    01:00 +31°C° 0 mm 1 m/S 753 mmHg 39%
    02:00 +31°C° 0 mm 1 m/S 753 mmHg 40%
    03:00 +31°C° 0 mm 1 m/S 752 mmHg 40%
    04:00 +31°C° 0 mm 1 m/S 752 mmHg 40%
    05:00 +31°C° 0 mm 2 m/S 752 mmHg 40%
    06:00 +31°C° 0 mm 2 m/S 753 mmHg 39%
    07:00 +32°C° 0 mm 2 m/S 753 mmHg 36%
    08:00 +34°C° 0 mm 2 m/S 753 mmHg 33%
    09:00 +36°C° 0 mm 2 m/S 753 mmHg 30%
    10:00 +36°C° 0 mm 2 m/S 753 mmHg 28%
    11:00 +37°C° 0 mm 2 m/S 753 mmHg 26%
    12:00 +38°C° 0 mm 3 m/S 753 mmHg 24%
    13:00 +38°C° 0 mm 2 m/S 752 mmHg 24%
    14:00 +37°C° 0 mm 1 m/S 752 mmHg 23%
    15:00 +36°C° 0 mm 0 m/S 752 mmHg 22%
    16:00 +37°C° 0 mm 1 m/S 752 mmHg 24%
    17:00 +37°C° 0 mm 1 m/S 752 mmHg 26%
    18:00 +37°C° 0 mm 2 m/S 752 mmHg 28%
    19:00 +37°C° 0 mm 2 m/S 752 mmHg 29%
    20:00 +36°C° 0 mm 2 m/S 752 mmHg 29%
    21:00 +36°C° 0 mm 2 m/S 753 mmHg 30%
    22:00 +35°C° 0 mm 2 m/S 753 mmHg 31%
    23:00 +35°C° 0 mm 2 m/S 753 mmHg 32%

    20 September, Freitag

    Zeit Temperatur Niederschläge Wind Luftdruck Luftfeuchtigkeit
    00:00 +34°C° 0 mm 2 m/S 753 mmHg 33%
    01:00 +34°C° 0 mm 3 m/S 752 mmHg 33%
    02:00 +33°C° 0 mm 4 m/S 752 mmHg 33%
    03:00 +33°C° 0 mm 5 m/S 752 mmHg 33%
    04:00 +33°C° 0 mm 4 m/S 752 mmHg 36%
    05:00 +32°C° 0 mm 4 m/S 752 mmHg 39%
    06:00 +32°C° 0 mm 4 m/S 752 mmHg 41%
    07:00 +33°C° 0 mm 5 m/S 752 mmHg 38%
    08:00 +34°C° 0 mm 5 m/S 752 mmHg 34%
    09:00 +36°C° 0 mm 6 m/S 753 mmHg 31%
    10:00 +38°C° 0 mm 6 m/S 753 mmHg 29%
    11:00 +39°C° 0 mm 5 m/S 752 mmHg 27%
    12:00 +40°C° 0 mm 5 m/S 752 mmHg 25%
    13:00 +40°C° 0 mm 4 m/S 752 mmHg 23%
    14:00 +40°C° 0 mm 4 m/S 751 mmHg 22%
    15:00 +40°C° 0 mm 3 m/S 751 mmHg 21%
    16:00 +39°C° 0 mm 3 m/S 751 mmHg 22%
    17:00 +38°C° 0 mm 3 m/S 751 mmHg 24%
    18:00 +38°C° 0 mm 2 m/S 752 mmHg 25%
    19:00 +37°C° 0 mm 3 m/S 752 mmHg 27%
    20:00 +36°C° 0 mm 3 m/S 753 mmHg 29%
    21:00 +36°C° 0 mm 3 m/S 753 mmHg 31%
    22:00 +35°C° 0 mm 4 m/S 753 mmHg 37%
    23:00 +34°C° 0 mm 5 m/S 753 mmHg 43%

    21 September, Samstag

    Zeit Temperatur Niederschläge Wind Luftdruck Luftfeuchtigkeit
    00:00 +33°C° 0 mm 6 m/S 753 mmHg 49%
    01:00 +32°C° 0 mm 6 m/S 753 mmHg 50%
    02:00 +32°C° 0 mm 5 m/S 752 mmHg 51%
    03:00 +32°C° 0 mm 5 m/S 752 mmHg 52%
    04:00 +30°C° 0 mm 4 m/S 752 mmHg 52%
    05:00 +30°C° 0 mm 4 m/S 752 mmHg 52%
    06:00 +30°C° 0 mm 4 m/S 753 mmHg 52%
    07:00 +32°C° 0 mm 5 m/S 753 mmHg 48%
    08:00 +33°C° 0 mm 7 m/S 753 mmHg 43%
    09:00 +34°C° 0 mm 8 m/S 754 mmHg 39%
    10:00 +35°C° 0 mm 8 m/S 754 mmHg 37%
    11:00 +37°C° 0 mm 8 m/S 753 mmHg 35%
    12:00 +38°C° 0 mm 9 m/S 753 mmHg 33%
    13:00 +38°C° 0 mm 8 m/S 753 mmHg 33%
    14:00 +38°C° 0 mm 8 m/S 752 mmHg 33%
    15:00 +39°C° 0 mm 8 m/S 752 mmHg 34%
    16:00 +38°C° 0 mm 7 m/S 752 mmHg 34%
    17:00 +38°C° 0 mm 7 m/S 752 mmHg 35%
    18:00 +36°C° 0 mm 7 m/S 752 mmHg 35%
    19:00 +36°C° 0 mm 7 m/S 752 mmHg 35%
    20:00 +36°C° 0 mm 7 m/S 752 mmHg 35%
    21:00 +35°C° 0 mm 7 m/S 753 mmHg 35%
    22:00 +35°C° 0 mm 8 m/S 753 mmHg 39%
    23:00 +34°C° 0 mm 8 m/S 753 mmHg 42%
    Mehr zeigen